Torna al catalogo

LEMUR 2 AMANDA-SVANTE

AttivoScienzaSSO
NORAD 48269·PAYLOAD·🇺🇸 United States

Lanciato Apr 29, 2021 da Guiana Space Centre

Loading…

Prossimi Passaggi (prossime 24 ore)

TLE

AggiornatoSource: Space-Track

Epoca: Sep 13, 2026, 23:14 UTC

1 48269U 21034B   26256.96841389  .00035001  00000-0  88918-3 0  9994
2 48269  97.5690 337.9105 0000928 264.8189  95.2950 15.39562168294698

Traccia LEMUR 2 AMANDA-SVANTE in tempo reale con AllMySat

Download on the App Store